| time (UTC) | temp F | wind direction | speed knots | gust knots | rain 1hr in | rain 24hr in | rain mn in | humidity % | barometer mb |
| 20260508141805 | 80 | 344 | 4.3 | 9.6 | 0.00 | 0.00 | 0.00 | 46 | 1014.9 |
| 20260508141114 | 81 | 323 | 2.6 | 8.7 | 0.00 | 0.00 | 0.00 | 46 | 1014.9 |
| 20260508140005 | 81 | 339 | 3.5 | 9.6 | 0.00 | 0.00 | 0.00 | 45 | 1015.0 |
| 20260508135403 | 81 | 338 | 3.5 | 9.6 | 0.00 | 0.00 | 0.00 | 45 | 1015.0 |
| 20260508134503 | 82 | 331 | 2.6 | 8.7 | 0.00 | 0.00 | 0.00 | 45 | 1014.9 |
| 20260508133605 | 82 | 326 | 3.5 | 8.7 | 0.00 | 0.00 | 0.00 | 43 | 1015.0 |
| 20260508132705 | 84 | 336 | 3.5 | 7.0 | 0.00 | 0.00 | 0.00 | 41 | 1015.0 |
| 20260508131803 | 85 | 333 | 1.7 | 8.7 | 0.00 | 0.00 | 0.00 | 36 | 1015.2 |
| 20260508130903 | 85 | 27 | 0.9 | 5.2 | 0.00 | 0.00 | 0.00 | 25 | 1015.3 |
| 20260508130005 | 85 | 327 | 0.9 | 4.3 | 0.00 | 0.00 | 0.00 | 25 | 1015.4 |
| 20260508125403 | 84 | 347 | 1.7 | 6.1 | 0.00 | 0.00 | 0.00 | 25 | 1015.4 |
| 20260508124503 | 85 | 9 | 2.6 | 7.8 | 0.00 | 0.00 | 0.00 | 25 | 1015.5 |
| 20260508123818 | 86 | 46 | 0.9 | 4.3 | 0.00 | 0.00 | 0.00 | 24 | 1015.6 |
| 20260508122703 | 86 | 19 | 0.9 | 3.5 | 0.00 | 0.00 | 0.00 | 25 | 1015.8 |
| 20260508121804 | 85 | 5 | 0.0 | 2.6 | 0.00 | 0.00 | 0.00 | 26 | 1015.8 |
| 20260508120905 | 84 | 7 | 0.9 | 4.3 | 0.00 | 0.00 | 0.00 | 27 | 1016.0 |
| 20260508120004 | 84 | 11 | 1.7 | 6.1 | 0.00 | 0.00 | 0.00 | 27 | 1016.2 |
| 20260508115614 | 84 | 15 | 1.7 | 5.2 | 0.00 | 0.00 | 0.00 | 27 | 1016.2 |
| 20260508114717 | 84 | 27 | 1.7 | 4.3 | 0.00 | 0.00 | 0.00 | 27 | 1016.4 |
| 20260508113605 | 83 | 20 | 0.9 | 6.1 | 0.00 | 0.00 | 0.00 | 29 | 1016.5 |
| 20260508112705 | 82 | 97 | 0.9 | 2.6 | 0.00 | 0.00 | 0.00 | 29 | 1016.6 |
| 20260508111805 | 82 | 12 | 0.9 | 4.3 | 0.00 | 0.00 | 0.00 | 29 | 1016.7 |
| 20260508110903 | 82 | 10 | 1.7 | 6.1 | 0.00 | 0.00 | 0.00 | 30 | 1016.8 |
| 20260508110004 | 82 | 40 | 0.9 | 5.2 | 0.00 | 0.00 | 0.00 | 29 | 1016.8 |
| 20260508105405 | 82 | 74 | 0.9 | 6.1 | 0.00 | 0.00 | 0.00 | 30 | 1016.8 |
| 20260508104717 | 81 | 42 | 0.9 | 6.1 | 0.00 | 0.00 | 0.00 | 30 | 1016.9 |
| 20260508103603 | 81 | 26 | 1.7 | 7.0 | 0.00 | 0.00 | 0.00 | 31 | 1016.9 |
| 20260508102705 | 81 | 56 | 0.9 | 7.0 | 0.00 | 0.00 | 0.00 | 31 | 1017.1 |
| 20260508101803 | 80 | 53 | 0.9 | 6.1 | 0.00 | 0.00 | 0.00 | 33 | 1017.2 |
| 20260508100905 | 79 | 84 | 0.9 | 4.3 | 0.00 | 0.00 | 0.00 | 34 | 1017.2 |
| 20260508100214 | 79 | 48 | 0.9 | 6.1 | 0.00 | 0.00 | 0.00 | 33 | 1017.2 |
| 20260508095403 | 79 | 92 | 0.9 | 3.5 | 0.00 | 0.00 | 0.00 | 36 | 1017.3 |
| 20260508094505 | 78 | 34 | 1.7 | 5.2 | 0.00 | 0.00 | 0.00 | 37 | 1017.4 |
| 20260508093605 | 78 | 35 | 1.7 | 4.3 | 0.00 | 0.00 | 0.00 | 38 | 1017.4 |
| 20260508092706 | 78 | 85 | 0.9 | 6.1 | 0.00 | 0.00 | 0.00 | 38 | 1017.6 |
| 20260508091804 | 78 | 20 | 2.6 | 6.1 | 0.00 | 0.00 | 0.00 | 35 | 1017.6 |
| 20260508091117 | 79 | 22 | 1.7 | 4.3 | 0.00 | 0.00 | 0.00 | 33 | 1017.8 |
| 20260508090215 | 78 | 18 | 1.7 | 5.2 | 0.00 | 0.00 | 0.00 | 31 | 1017.8 |
| 20260508085405 | 77 | 38 | 1.7 | 4.3 | 0.00 | 0.00 | 0.00 | 31 | 1017.9 |
| 20260508084504 | 77 | 42 | 0.9 | 4.3 | 0.00 | 0.00 | 0.00 | 32 | 1017.9 |
| 20260508083605 | 76 | 18 | 0.9 | 4.3 | 0.00 | 0.00 | 0.00 | 33 | 1018.1 |
| 20260508082705 | 76 | 45 | 0.0 | 3.5 | 0.00 | 0.00 | 0.00 | 38 | 1018.2 |
| 20260508081804 | 75 | 35 | 0.9 | 3.5 | 0.00 | 0.00 | 0.00 | 39 | 1018.3 |
| 20260508080905 | 74 | 20 | 0.9 | 5.2 | 0.00 | 0.00 | 0.00 | 42 | 1018.3 |
| 20260508080004 | 74 | 28 | 0.9 | 4.3 | 0.00 | 0.00 | 0.00 | 43 | 1018.4 |
| 20260508075405 | 73 | 35 | 0.0 | 4.3 | 0.00 | 0.00 | 0.00 | 44 | 1018.5 |
| 20260508074504 | 72 | 25 | 0.0 | 3.5 | 0.00 | 0.00 | 0.00 | 46 | 1018.4 |
| 20260508073605 | 71 | 14 | 0.0 | 3.5 | 0.00 | 0.00 | 0.00 | 47 | 1018.5 |
| 20260508072705 | 71 | 14 | 0.9 | 4.3 | 0.00 | 0.00 | 0.00 | 47 | 1018.4 |
| 20260508071805 | 70 | 24 | 0.0 | 3.5 | 0.00 | 0.00 | 0.00 | 48 | 1018.4 |
| 20260508070905 | 69 | 19 | 0.0 | 3.5 | 0.00 | 0.00 | 0.00 | 48 | 1018.1 |
| 20260508070004 | 69 | 32 | 0.9 | 4.3 | 0.00 | 0.00 | 0.00 | 48 | 1018.3 |
| 20260508065405 | 69 | 47 | 0.9 | 4.3 | 0.00 | 0.00 | 0.00 | 48 | 1018.4 |
| 20260508064504 | 69 | 63 | 0.0 | 4.3 | 0.00 | 0.00 | 0.00 | 47 | 1018.5 |
| 20260508063603 | 68 | 75 | 0.9 | 4.3 | 0.00 | 0.00 | 0.00 | 48 | 1018.5 |
| 20260508062915 | 69 | 70 | 0.9 | 4.3 | 0.00 | 0.00 | 0.00 | 47 | 1018.5 |
| 20260508062017 | 68 | 46 | 0.9 | 4.3 | 0.00 | 0.00 | 0.00 | 46 | 1018.5 |
| 20260508060913 | 68 | 70 | 0.9 | 6.1 | 0.00 | 0.00 | 0.00 | 45 | 1018.4 |
| 20260508060004 | 68 | 30 | 0.9 | 4.3 | 0.00 | 0.00 | 0.00 | 44 | 1018.5 |
| 20260508055403 | 68 | 37 | 0.9 | 4.3 | 0.00 | 0.00 | 0.00 | 44 | 1018.5 |
| 20260508054505 | 68 | 42 | 0.9 | 4.3 | 0.00 | 0.00 | 0.00 | 42 | 1018.4 |
| 20260508053603 | 68 | 48 | 0.9 | 3.5 | 0.00 | 0.00 | 0.00 | 42 | 1018.3 |
| 20260508052705 | 68 | 30 | 1.7 | 4.3 | 0.00 | 0.00 | 0.00 | 43 | 1018.4 |
| 20260508051803 | 68 | 47 | 0.9 | 6.1 | 0.00 | 0.00 | 0.00 | 43 | 1018.3 |
| 20260508050905 | 67 | 8 | 0.9 | 4.3 | 0.00 | 0.00 | 0.00 | 43 | 1018.2 |
| 20260508050004 | 67 | 338 | 0.9 | 4.3 | 0.00 | 0.00 | 0.00 | 43 | 1018.1 |
| 20260508045405 | 67 | 331 | 0.9 | 4.3 | 0.00 | 0.00 | 0.00 | 41 | 1017.9 |
| 20260508044504 | 66 | 309 | 0.0 | 2.6 | 0.00 | 0.00 | 0.00 | 41 | 1018.1 |
| 20260508043603 | 65 | 345 | 0.0 | 1.7 | 0.00 | 0.00 | 0.00 | 42 | 1017.8 |
| 20260508042705 | 65 | 344 | 0.0 | 1.7 | 0.00 | 0.00 | 0.00 | 42 | 1017.9 |
| 20260508041803 | 64 | 0 | 0.0 | 0.0 | 0.00 | 0.00 | 0.00 | 43 | 1018.0 |
| 20260508040905 | 63 | 288 | 0.0 | 0.9 | 0.00 | 0.00 | 0.00 | 44 | 1017.8 |
| 20260508040005 | 63 | 0 | 0.0 | 0.0 | 0.00 | 0.00 | 0.00 | 45 | 1017.9 |
| 20260508035405 | 62 | 0 | 0.0 | 0.0 | 0.00 | 0.00 | 0.00 | 46 | 1017.9 |
| 20260508034505 | 61 | 267 | 0.0 | 0.9 | 0.00 | 0.00 | 0.00 | 46 | 1017.8 |
| 20260508033604 | 61 | 267 | 0.0 | 0.9 | 0.00 | 0.00 | 0.00 | 48 | 1017.8 |
| 20260508032705 | 60 | 269 | 0.0 | 1.7 | 0.00 | 0.00 | 0.00 | 48 | 1017.8 |
| 20260508031803 | 60 | 269 | 0.0 | 1.7 | 0.00 | 0.00 | 0.00 | 48 | 1017.7 |
| 20260508031116 | 60 | 0 | 0.0 | 0.0 | 0.00 | 0.00 | 0.00 | 48 | 1017.7 |
| 20260508030213 | 60 | 0 | 0.0 | 0.0 | 0.00 | 0.00 | 0.00 | 47 | 1017.7 |
| 20260508025404 | 60 | 0 | 0.0 | 0.0 | 0.00 | 0.00 | 0.00 | 47 | 1017.6 |
| 20260508024717 | 60 | 0 | 0.0 | 0.0 | 0.00 | 0.00 | 0.00 | 47 | 1017.6 |
| 20260508023815 | 60 | 0 | 0.0 | 0.0 | 0.00 | 0.00 | 0.00 | 48 | 1017.2 |
| 20260508022705 | 60 | 271 | 0.0 | 1.7 | 0.00 | 0.00 | 0.00 | 49 | 1017.0 |
| 20260508021805 | 60 | 266 | 0.0 | 1.7 | 0.00 | 0.00 | 0.00 | 49 | 1017.0 |
| 20260508020903 | 60 | 268 | 0.0 | 2.6 | 0.00 | 0.00 | 0.00 | 49 | 1017.1 |
| 20260508020006 | 60 | 271 | 0.9 | 3.5 | 0.00 | 0.00 | 0.00 | 50 | 1017.0 |
| 20260508015405 | 60 | 270 | 0.9 | 3.5 | 0.00 | 0.00 | 0.00 | 50 | 1017.1 |
| 20260508014504 | 60 | 269 | 0.9 | 4.3 | 0.00 | 0.00 | 0.00 | 51 | 1017.0 |
| 20260508013605 | 59 | 272 | 0.0 | 3.5 | 0.00 | 0.00 | 0.00 | 53 | 1017.0 |
| 20260508012703 | 60 | 274 | 0.0 | 3.5 | 0.00 | 0.00 | 0.00 | 53 | 1017.2 |
| 20260508011804 | 60 | 270 | 0.0 | 3.5 | 0.00 | 0.00 | 0.00 | 52 | 1017.3 |
| 20260508011117 | 60 | 274 | 0.9 | 4.3 | 0.00 | 0.00 | 0.00 | 51 | 1017.3 |
| 20260508010006 | 60 | 276 | 0.0 | 2.6 | 0.00 | 0.00 | 0.00 | 51 | 1017.4 |
| 20260508005403 | 60 | 273 | 0.9 | 2.6 | 0.00 | 0.00 | 0.00 | 52 | 1017.5 |
| 20260508004505 | 60 | 279 | 0.9 | 3.5 | 0.00 | 0.00 | 0.00 | 52 | 1017.4 |
| 20260508003603 | 60 | 269 | 0.0 | 1.7 | 0.00 | 0.00 | 0.00 | 52 | 1017.5 |
| 20260508002704 | 60 | 272 | 0.0 | 3.5 | 0.00 | 0.00 | 0.00 | 53 | 1017.6 |
| 20260508002016 | 60 | 275 | 0.9 | 4.3 | 0.00 | 0.00 | 0.00 | 54 | 1017.6 |
| 20260508001113 | 60 | 284 | 0.9 | 4.3 | 0.00 | 0.00 | 0.00 | 56 | 1017.6 |
| 20260508000005 | 60 | 270 | 0.9 | 5.2 | 0.00 | 0.00 | 0.00 | 54 | 1017.7 |
| 20260507235405 | 60 | 266 | 0.9 | 7.0 | 0.00 | 0.00 | 0.00 | 53 | 1017.6 |
| 20260507234505 | 60 | 291 | 0.0 | 3.5 | 0.00 | 0.00 | 0.00 | 55 | 1017.6 |
| 20260507233603 | 60 | 274 | 1.7 | 6.1 | 0.00 | 0.00 | 0.00 | 58 | 1017.6 |
| 20260507232705 | 59 | 138 | 0.0 | 3.5 | 0.00 | 0.00 | 0.00 | 60 | 1017.7 |
| 20260507231805 | 59 | 113 | 0.0 | 4.3 | 0.00 | 0.00 | 0.00 | 62 | 1017.6 |
| 20260507230904 | 59 | 106 | 0.9 | 6.1 | 0.00 | 0.00 | 0.00 | 62 | 1017.6 |
| 20260507230006 | 60 | 115 | 0.9 | 4.3 | 0.00 | 0.00 | 0.00 | 62 | 1017.8 |
| 20260507225405 | 60 | 107 | 0.9 | 6.1 | 0.00 | 0.00 | 0.00 | 62 | 1017.8 |
| 20260507224505 | 60 | 56 | 0.9 | 6.1 | 0.00 | 0.00 | 0.00 | 62 | 1017.7 |
| 20260507223603 | 60 | 113 | 0.9 | 4.3 | 0.00 | 0.00 | 0.00 | 60 | 1017.9 |
| 20260507222705 | 61 | 22 | 0.9 | 4.3 | 0.00 | 0.00 | 0.00 | 58 | 1017.9 |
| 20260507221804 | 61 | 85 | 0.9 | 7.0 | 0.00 | 0.00 | 0.00 | 55 | 1017.9 |
| 20260507220903 | 61 | 52 | 0.0 | 6.1 | 0.00 | 0.00 | 0.00 | 54 | 1017.9 |
| 20260507220005 | 62 | 35 | 0.0 | 6.1 | 0.00 | 0.00 | 0.00 | 52 | 1017.9 |
| 20260507215403 | 62 | 72 | 0.0 | 3.5 | 0.00 | 0.00 | 0.00 | 49 | 1017.9 |
| 20260507214504 | 62 | 286 | 0.9 | 7.0 | 0.00 | 0.00 | 0.00 | 46 | 1018.0 |
| 20260507213606 | 62 | 239 | 0.0 | 2.6 | 0.00 | 0.00 | 0.00 | 46 | 1017.9 |
| 20260507212703 | 62 | 355 | 0.0 | 0.9 | 0.00 | 0.00 | 0.00 | 46 | 1017.9 |
| 20260507212018 | 62 | 12 | 0.0 | 1.7 | 0.00 | 0.00 | 0.00 | 46 | 1017.9 |
| 20260507211115 | 62 | 42 | 0.0 | 1.7 | 0.00 | 0.00 | 0.00 | 47 | 1017.8 |
| 20260507210007 | 62 | 306 | 0.0 | 0.9 | 0.00 | 0.00 | 0.00 | 48 | 1017.8 |
| 20260507205403 | 62 | 0 | 0.0 | 0.0 | 0.00 | 0.00 | 0.00 | 49 | 1017.8 |
| 20260507204505 | 62 | 0 | 0.0 | 0.0 | 0.00 | 0.00 | 0.00 | 49 | 1017.7 |
| 20260507203603 | 62 | 0 | 0.0 | 0.0 | 0.00 | 0.00 | 0.00 | 49 | 1017.6 |
| 20260507202705 | 62 | 314 | 0.0 | 0.9 | 0.00 | 0.00 | 0.00 | 50 | 1017.7 |
| 20260507201803 | 62 | 288 | 0.0 | 3.5 | 0.00 | 0.00 | 0.00 | 50 | 1017.6 |
| 20260507200905 | 62 | 284 | 0.0 | 3.5 | 0.00 | 0.00 | 0.00 | 50 | 1017.4 |
| 20260507200004 | 62 | 0 | 0.0 | 0.0 | 0.00 | 0.00 | 0.00 | 51 | 1017.5 |
| 20260507195405 | 62 | 220 | 0.0 | 3.5 | 0.00 | 0.00 | 0.00 | 50 | 1017.5 |
| 20260507194503 | 63 | 145 | 0.0 | 4.3 | 0.00 | 0.00 | 0.00 | 50 | 1017.6 |
| 20260507193605 | 63 | 246 | 0.0 | 1.7 | 0.00 | 0.00 | 0.00 | 50 | 1017.6 |
| 20260507192703 | 63 | 241 | 0.0 | 2.6 | 0.00 | 0.00 | 0.00 | 50 | 1017.6 |
| 20260507191803 | 63 | 352 | 0.0 | 4.3 | 0.00 | 0.00 | 0.00 | 51 | 1017.5 |
| 20260507190905 | 63 | 111 | 0.0 | 6.1 | 0.00 | 0.00 | 0.00 | 52 | 1017.5 |
| 20260507190006 | 63 | 60 | 0.0 | 2.6 | 0.00 | 0.00 | 0.00 | 53 | 1017.6 |
| 20260507185406 | 63 | 28 | 0.0 | 2.6 | 0.00 | 0.00 | 0.00 | 53 | 1017.6 |
| 20260507184503 | 63 | 327 | 0.0 | 5.2 | 0.00 | 0.00 | 0.00 | 54 | 1017.6 |
| 20260507183815 | 64 | 333 | 0.9 | 5.2 | 0.00 | 0.00 | 0.00 | 54 | 1017.6 |
| 20260507182917 | 64 | 337 | 0.9 | 6.1 | 0.00 | 0.00 | 0.00 | 54 | 1017.5 |
| 20260507182014 | 64 | 320 | 2.6 | 7.8 | 0.00 | 0.00 | 0.00 | 54 | 1017.5 |
| 20260507181117 | 64 | 328 | 1.7 | 7.8 | 0.00 | 0.00 | 0.00 | 56 | 1017.4 |
| 20260507180004 | 64 | 312 | 2.6 | 7.8 | 0.00 | 0.00 | 0.00 | 56 | 1017.3 |
| 20260507175403 | 64 | 304 | 1.7 | 7.8 | 0.00 | 0.00 | 0.00 | 56 | 1017.3 |
| 20260507174505 | 64 | 294 | 1.7 | 6.1 | 0.00 | 0.00 | 0.00 | 57 | 1017.2 |
| 20260507173815 | 64 | 304 | 1.7 | 7.0 | 0.00 | 0.00 | 0.00 | 57 | 1017.2 |
| 20260507172913 | 64 | 314 | 2.6 | 7.8 | 0.00 | 0.00 | 0.00 | 57 | 1017.0 |
| 20260507172015 | 64 | 324 | 3.5 | 8.7 | 0.00 | 0.00 | 0.00 | 58 | 1016.9 |
| 20260507171112 | 64 | 324 | 4.3 | 11.3 | 0.00 | 0.00 | 0.00 | 59 | 1016.9 |
| 20260507170004 | 65 | 308 | 4.3 | 9.6 | 0.00 | 0.00 | 0.00 | 59 | 1016.9 |
| 20260507165403 | 65 | 323 | 2.6 | 8.7 | 0.00 | 0.00 | 0.00 | 60 | 1016.8 |
| 20260507164503 | 65 | 337 | 3.5 | 11.3 | 0.00 | 0.00 | 0.00 | 60 | 1016.7 |
| 20260507163605 | 66 | 317 | 4.3 | 10.4 | 0.00 | 0.00 | 0.00 | 60 | 1016.5 |
| 20260507162704 | 66 | 316 | 3.5 | 10.4 | 0.00 | 0.00 | 0.00 | 60 | 1016.4 |
| 20260507161803 | 66 | 323 | 2.6 | 9.6 | 0.00 | 0.00 | 0.00 | 60 | 1016.4 |
| 20260507160903 | 67 | 336 | 3.5 | 8.7 | 0.00 | 0.00 | 0.00 | 59 | 1016.4 |
| 20260507160004 | 68 | 1 | 1.7 | 8.7 | 0.00 | 0.00 | 0.00 | 59 | 1016.3 |
| 20260507155403 | 68 | 340 | 3.5 | 7.8 | 0.00 | 0.00 | 0.00 | 58 | 1016.3 |
| 20260507154503 | 69 | 329 | 4.3 | 11.3 | 0.00 | 0.00 | 0.00 | 57 | 1016.2 |
| 20260507153603 | 69 | 340 | 3.5 | 9.6 | 0.00 | 0.00 | 0.00 | 56 | 1016.2 |
| 20260507152703 | 70 | 315 | 3.5 | 9.6 | 0.00 | 0.00 | 0.00 | 55 | 1016.2 |
| 20260507152016 | 71 | 322 | 3.5 | 10.4 | 0.00 | 0.00 | 0.00 | 55 | 1016.3 |
| 20260507151113 | 71 | 331 | 3.5 | 9.6 | 0.00 | 0.00 | 0.00 | 55 | 1016.3 |
| 20260507150216 | 71 | 329 | 4.3 | 9.6 | 0.00 | 0.00 | 0.00 | 53 | 1016.3 |
| 20260507145403 | 72 | 326 | 3.5 | 10.4 | 0.00 | 0.00 | 0.00 | 53 | 1016.2 |
| 20260507144503 | 72 | 327 | 3.5 | 13.0 | 0.00 | 0.00 | 0.00 | 53 | 1016.2 |
| 20260507143603 | 73 | 327 | 4.3 | 9.6 | 0.00 | 0.00 | 0.00 | 52 | 1016.3 |
| 20260507142703 | 73 | 330 | 4.3 | 11.3 | 0.00 | 0.00 | 0.00 | 51 | 1016.2 |